FENGYUN 1C DEB, 31014

Orbit data source: Space-Track

FENGYUN 1C DEB, 31014 is space debris in SSO originally from a launch on Mon, 10 May 1999 UTC launched from the Taiyaun Space Center, China (TSC). Fengyun 1C debris stems from the Chinese weather satellite Fengyun-1C, which was intentionally destroyed by a Chinese anti-satellite missile in 2007. This event dramatically increased the amount of space debris, with thousands of trackable fragments posing hazards to satellites and human spaceflight. The Fengyun 1C debris cloud has become a focal point in discussions about space sustainability and the need for international regulations to prevent the creation of new debris.

Loading next visibility...
Identifier
31014, 1999-025BDG
Orbit
SSO
Country
Flag of CNCN / PRC
Related business
Manufacturer
Unknown
Mission
Spacecraft
Bus & Motor
Unknown
Mass
Unknown
Launch date (UTC)
1999-05-10 (27 years ago)
Launch vehicle
Unknown
Launch site
Taiyaun Space Center, China (TSC)
Object type
Payload
Rocket body
Debris
Shape & HBR
Unknown shape, 0.1 m
Radar Cross Section
Medium (>0.1 m² and <1 m²)

Expand to show TLE details & history
Last TLE update: 7 hours ago

TLE from 7 hours ago
0 FENGYUN 1C DEB
1 31014U 99025BDG 26238.15455154  .00000451  00000-0  33304-3 0  9991
2 31014  98.8975 210.8048 0087392 203.9878 216.6811 13.98579109994207
Epoch: 2026-08-26T03:42Z
TLE epoch observation values (Epoch: 2026-08-26T03:42:33.253Z)
Latitude
58.99503°
Longitude
165.73564°
Altitude
959.869 km
Speed
7.351 km/s
True Right ascension
13h 03m 08s
True Declination
58° 50' 50"
Sunlit
Object was in daylight at epoch
Visualization orbit readout
Latitude
Unknown
Longitude
Unknown
Altitude
Unknown
Speed
Unknown
Apparent Right ascension
Unknown
Apparent Declination
Unknown
Sunlit
N/A
Visualization observer readout
Local Sidereal Time
01:43:49
Azimuth
Unknown
Elevation
Unknown
Doppler factor
Unknown
Orbital elements
Apogee altitude
959.485 km
Perigee altitude
832.346 km
Semi-major axis
7,274.053 km
Eccentricity
0.00874
Inclination
98.8975°
RAAN
210.8048°
Arg. of periapsis
203.9878°
True anomaly
216.08809°
Mean anomaly
216.6811°
Eccentric anomaly
216.38408°
Mean motion
3.49847 °/min
Orbital period
102.9 mins
BSTAR
0.00033304
Loading maneuver chart data...
Computing Atmospheric mass density...
Loading historical data...
Loading historical data...
Loading historical data...
Loading historical data...
Loading historical data...
Loading historical data...
Loading historical data...

Documentation

Showing up to 5 results
|